Location: Newark
(47.5783°N, 6.7622°E)
Time: 16:50:43
(UTC+00:00)

Vanguard 1 Rocket - Visible Passes

Search period start: 26 February 2020 00:00
Search period end: 07 March 2020 00:00
Orbit: 650 x 4226 km, 34.3° (Epoch: 25 February)

Date Brightness Start Highest point End Pass type
(mag) Time Alt. Az. Time Alt. Az. Time Alt. Az.
26 Feb 9.0 03:36:12 15° SSE 03:36:12 15° SSE 03:37:28 10° SE visible
27 Feb 8.9 04:46:17 12° SW 04:47:04 13° SSW 04:49:08 10° S visible
28 Feb 9.1 03:39:05 15° SSE 03:39:05 15° SSE 03:40:16 10° SSE visible
29 Feb 9.1 04:49:12 10° SW 04:49:42 10° SSW 04:50:31 10° SSW visible
01 Mar 9.2 03:42:02 13° S 03:42:02 13° S 03:42:54 10° SSE visible
01 Mar 11.3 21:26:07 10° SSW 21:27:31 12° SSW 21:27:31 12° SSW visible
02 Mar 11.1 20:15:32 10° S 20:20:46 14° SSE 20:20:46 14° SSE visible
03 Mar 9.3 03:45:04 11° S 03:45:04 11° S 03:45:20 10° S visible
03 Mar 11.1 19:10:20 10° SSE 19:12:47 10° SE 19:14:05 10° SE visible
03 Mar 11.0 21:26:07 10° SSW 21:31:25 18° SSW 21:31:25 18° SSW visible
04 Mar 10.8 20:14:12 10° SSW 20:24:45 21° SSE 20:24:45 21° SSE visible
04 Mar 11.2 22:40:16 10° SW 22:42:05 13° SW 22:42:05 13° SW visible
05 Mar 10.9 19:04:25 10° S 19:15:13 16° SE 19:18:07 15° SE visible
05 Mar 10.8 21:26:39 10° SW 21:35:27 24° SSW 21:35:27 24° SSW visible
06 Mar 10.6 20:13:52 10° SSW 20:28:49 27° SSE 20:28:49 27° SSE visible
06 Mar 11.0 22:41:43 10° SW 22:46:10 18° SW 22:46:10 18° SW visible
